Location: Memphis
(29.8667°N, 31.2500°E)
Time: 08:40:31
(UTC+00:00)

USA 238 - Pass Details

Date: 03 March 2021
Orbit: 994 x 1218 km, 63.4° (Epoch: 11 April)

Event Time Altitude Azimuth Distance (km) Brightness Sun altitude
Rises 17:45:07 0° 196° (SSW) 3,692 6.6 -24.5°
Reaches altitude 10° 17:47:42 10° 192° (SSW) 2,749 5.9 -25.1°
Enters shadow 17:53:20 55° 138° (SE) 1,192 3.6 -26.3°
